Regional Weather Roundup
Issued by NWS

Home | Current Version | Previous Version | Graphics & Text | Print | Product List | Glossary On
Versions: 1 2 3 4 5 6 7 8 9 10 11 12 13 14 15 16 17 18 19 20 21 22 23 24 25 26 27 28 29 30 31 32 33 34 35 36 37 38 39 40 41 42 43 44 45 46 47 48 49 50
000
ASUS45 KTFX 021910
RWRMT
MONTANA REGIONAL WEATHER ROUNDUP
NATIONAL WEATHER SERVICE GREAT FALLS MT
100 PM MDT THU JUL 02 2015

NOTE: "FAIR" INDICATES FEW OR NO CLOUDS BELOW 12000 FEET WITH NO
SIGNIFICANT WEATHER AND/OR OBSTRUCTIONS TO VISIBILITY.

MTZ001>007-043-022000-
WEST OF THE DIVIDE

CITY           SKY/WX    TMP DP  RH WIND       PRES   REMARKS
KALISPELL      CLEAR     86  51  29 W6        30.07F
MISSOULA       SUNNY     87  47  24 N3        30.08F
BUTTE          SUNNY     79  36  21 E5        30.23F
MULLAN PASS    SUNNY     76  42  29 CALM      30.26F
DEER LODGE       N/A     81  48  32 CALM      30.21F
EUREKA           N/A     84  52  32 CALM      30.06F
HAMILTON         N/A     82  46  28 N3        30.09F
PLAINS           N/A     90  51  26 SE1       30.05F
RONAN            N/A     84  53  34 W5        30.13F
THOMPSON FALLS   N/A     91  50  24 NE1       30.06F
$$

MTZ008-052>055-022000-
SOUTHWEST MONTANA

CITY           SKY/WX    TMP DP  RH WIND       PRES   REMARKS
BOZEMAN        SUNNY     82  53  36 VRB6      30.17F
DILLON         SUNNY     78  50  37 E3        30.19F
W YELLOWSTONE  SUNNY     79  34  19 W9        30.26F
THREE FORKS      N/A     80  61  52 NE5       30.15F
$$

MTZ009-010-012-014-046-048-049-054-022000-
EAST SLOPES AND CENTRAL MONTANA

CITY           SKY/WX    TMP DP  RH WIND       PRES   REMARKS
CUT BANK       SUNNY     79  48  33 VRB5      30.17F
GREAT FALLS    SUNNY     78  51  38 CALM      30.17F
MALMSTROM AFB  SUNNY     78  49  37 NW5G13    30.17F
HELENA         SUNNY     83  50  31 MISG      30.14F
CONRAD           N/A     77  61  57 N6        30.19F
$$

MTZ011-013-016-021-045-047-050-051-022000-
NORTH CENTRAL MONTANA

CITY           SKY/WX    TMP DP  RH WIND       PRES   REMARKS
HAVRE          SUNNY     79  54  41 MISG      30.13F
LEWISTOWN      SUNNY     76  53  44 VRB3      30.21S
CHINOOK          N/A     79  55  44 W7        30.13F
FORT BENTON      N/A     79  55  44 E6        30.15F
$$

MTZ017>020-022>027-061-062-022000-
NORTHEAST MONTANA

CITY           SKY/WX    TMP DP  RH WIND       PRES   REMARKS
GLASGOW        PTSUNNY   75  57  53 NW12      30.09S HAZE
JORDAN           N/A     77  56  48 NW16      30.10S
SIDNEY         MOSUNNY   79  59  50 CALM      30.05F
WOLF POINT     CLOUDY    79  60  52 NW6       30.05F HAZE
MALTA            N/A     78  57  48 N8        30.06F
PLENTYWOOD       N/A     77  59  53 NW5       30.04F
SCOBEY           N/A     73  59  61 NW7       30.06F
$$

MTZ028>42-056>058-022000-
SOUTHCENTRAL AND SOUTHEAST MONTANA

CITY           SKY/WX    TMP DP  RH WIND       PRES   REMARKS
BAKER          MOSUNNY   77  57  50 NW14G22   30.09F HAZE
BILLINGS       MOSUNNY   81  52  36 NE9       30.16F
LIVINGSTON     SUNNY     80  50  34 CALM      30.17F
MILES CITY     MOSUNNY   82  54  37 NW16      30.08F
EKALAKA          N/A     74  55  51 NW12      30.10S
FORSYTH          N/A     79  54  41 NW7       30.10F
LAUREL           N/A     80  52  37 E2        30.13F
ROUNDUP          N/A     80  52  37 N9        30.06F
$$

REGIONAL REPORTS...DAKOTAS

CITY           SKY/WX    TMP DP  RH WIND       PRES   REMARKS
WILLISTON      PTSUNNY   80  58  46 N14       30.03S
MINOT          MOSUNNY   76  62  62 NW10      29.97S HAZE
DICKINSON      SUNNY     76  57  51 N9G16     30.03F
BEACH          FAIR      75  63  64 N10       30.08F HAZE
CROSBY         FAIR      73  66  78 N7        30.04S
BISMARCK       CLOUDY    78  63  59 NW6       29.98S HAZE
GRAND FORKS    MOSUNNY   79  64  60 SW9       29.93S
FARGO          SUNNY     76  55  48 S10       29.97S
BUFFALO SD       N/A     75  55  49 NW24      30.01F
RAPID CITY     MOSUNNY   77  61  57 N20       30.08F
$$

REGIONAL REPORTS...WYOMING/IDAHO/WASHINGTON

CITY           SKY/WX    TMP DP  RH WIND       PRES   REMARKS
GILLETTE       PTSUNNY   75  56  51 N14G20    30.17F
SHERIDAN       MOSUNNY   80  54  40 W6        30.16F
BUFFALO WY     PTSUNNY   72  54  53 N9        30.22F
CODY           SUNNY     75  52  43 NE5       30.21S
YELLOWSTONE LA   N/A     74  47  38 VRB6      30.36S
IDAHO FALLS    SUNNY     87  52  29 N6        30.12F
SALMON         SUNNY     84  43  23 N9        30.06F
BOISE          SUNNY     93  49  22 W8G20     29.99F HX  90
SPOKANE        MOSUNNY   90  46  21 MISG      30.03F
$$

REGIONAL REPORTS...ALBERTA

CITY           SKY/WX    TMP DP  RH WIND       PRES   REMARKS
EDMONTON       PTSUNNY   81  54  39 W5        30.05F
CALGARY        MOSUNNY   75  57  53 S7G18     30.14F
LETHBRIDGE     MOSUNNY   77  52  41 VRB2      30.14F
MEDICINE HAT   MOSUNNY   81  55  41 S8        30.11F
CARDSTON         N/A     79  54  41 SE5         N/A
MILK RIVER       N/A     79  50  36 S7          N/A
$$

REGIONAL REPORTS...SASKATCHEWAN

CITY           SKY/WX    TMP DP  RH WIND       PRES   REMARKS
SWIFT CURRENT  MOSUNNY   75  59  57 NW10      30.10S HAZE
REGINA         CLOUDY    75  63  64 NW15      30.03R SMOKE
SASKATOON      PTSUNNY   79  59  50 VRB2      30.04F SMOKE
CYPRESS HILLS    N/A     68  54  60 N5          N/A
VAL MARIE        N/A     73  59  60 N10         N/A
ASSINIBOIA       N/A     79  57  47 SW5         N/A
$$


USA.gov is the U.S. government's official web portal to all federal, state and local government web resources and services.